CEB961 RPLL-RPMD

Flight info

Callsign CEB961
Flight time N/A
Altitude 39000
Route IPATA2R IPATA B462 MASBA W9A BN W9 RIMAR RIMAR2R
Aircraft A339/H-SADE1E2E3GHIJ1J3J5M1P2RWXY/LB2D1

Departure

Time 2026-05-07 04:03
Airport Ninoy Aquino International Airport (RPLL)

Arrival

Time N/A
Airport Francisco Bangoy International Airport (RPMD)
Time Latitude Longitude Altitude Speed Heading
2026-05-07 03:32 14.52138 121.01039 90 ft 0 kts 46°
2026-05-07 03:49 14.52129 121.01030 90 ft 2 kts 43°
2026-05-07 03:49 14.52118 121.01020 90 ft 2 kts 43°
2026-05-07 03:49 14.52108 121.01009 90 ft 2 kts 44°
2026-05-07 03:49 14.52097 121.00999 90 ft 2 kts 44°
2026-05-07 03:50 14.52086 121.00988 90 ft 2 kts 44°
2026-05-07 03:50 14.52076 121.00977 90 ft 2 kts 65°
2026-05-07 03:50 14.52073 121.00962 90 ft 2 kts 96°
2026-05-07 03:50 14.52077 121.00948 90 ft 2 kts 124°
2026-05-07 03:51 14.52087 121.00936 90 ft 2 kts 139°
2026-05-07 03:51 14.52091 121.00932 90 ft 0 kts 138°
2026-05-07 03:53 14.52090 121.00934 90 ft 1 kts 138°
2026-05-07 03:54 14.52063 121.00960 90 ft 10 kts 135°
2026-05-07 03:54 14.51994 121.01034 90 ft 18 kts 134°
2026-05-07 03:54 14.51894 121.01138 90 ft 20 kts 134°
2026-05-07 03:54 14.51792 121.01242 90 ft 20 kts 134°
2026-05-07 03:55 14.51693 121.01346 90 ft 20 kts 135°
2026-05-07 03:55 14.51594 121.01447 90 ft 19 kts 135°
2026-05-07 03:55 14.51498 121.01546 90 ft 19 kts 135°
2026-05-07 03:55 14.51406 121.01643 90 ft 18 kts 134°
2026-05-07 03:56 14.51314 121.01736 90 ft 18 kts 134°
2026-05-07 03:56 14.51223 121.01831 90 ft 18 kts 135°
2026-05-07 03:56 14.51140 121.01918 90 ft 16 kts 134°
2026-05-07 03:56 14.51064 121.01987 90 ft 11 kts 160°
2026-05-07 03:57 14.51019 121.01944 90 ft 9 kts 249°
2026-05-07 03:57 14.50984 121.01880 90 ft 10 kts 238°
2026-05-07 03:57 14.50942 121.01810 90 ft 12 kts 240°
2026-05-07 03:57 14.50899 121.01732 90 ft 13 kts 240°
2026-05-07 03:58 14.50851 121.01647 90 ft 14 kts 240°
2026-05-07 03:58 14.50802 121.01558 90 ft 14 kts 240°
2026-05-07 03:58 14.50749 121.01463 90 ft 15 kts 240°
2026-05-07 03:58 14.50693 121.01361 90 ft 17 kts 240°
2026-05-07 03:59 14.50633 121.01253 90 ft 17 kts 241°
2026-05-07 03:59 14.50572 121.01144 90 ft 17 kts 240°
2026-05-07 03:59 14.50510 121.01033 90 ft 18 kts 240°
2026-05-07 03:59 14.50441 121.00909 90 ft 20 kts 240°
2026-05-07 04:00 14.50371 121.00782 90 ft 20 kts 240°
2026-05-07 04:00 14.50301 121.00656 90 ft 20 kts 240°
2026-05-07 04:00 14.50233 121.00534 90 ft 19 kts 240°
2026-05-07 04:00 14.50163 121.00409 90 ft 19 kts 240°
2026-05-07 04:01 14.50095 121.00286 90 ft 19 kts 240°
2026-05-07 04:01 14.50026 121.00163 90 ft 19 kts 240°
2026-05-07 04:01 14.49958 121.00040 90 ft 19 kts 240°
2026-05-07 04:01 14.49901 120.99970 90 ft 12 kts 195°
2026-05-07 04:02 14.49822 120.99998 90 ft 11 kts 145°
2026-05-07 04:02 14.49813 121.00060 90 ft 9 kts 68°
2026-05-07 04:02 14.49820 121.00075 90 ft 0 kts 62°
2026-05-07 04:02 14.49826 121.00088 90 ft 16 kts 63°
2026-05-07 04:03 14.50006 121.00411 90 ft 84 kts 60°
2026-05-07 04:03 14.50397 121.01118 90 ft 140 kts 61°
2026-05-07 04:03 14.50955 121.02125 139 ft 181 kts 60°
2026-05-07 04:03 14.51600 121.03255 764 ft 176 kts 62°
2026-05-07 04:04 14.52182 121.04292 1547 ft 166 kts 63°
2026-05-07 04:04 14.52759 121.05354 1992 ft 179 kts 62°
2026-05-07 04:04 14.53398 121.06520 2345 ft 193 kts 62°
2026-05-07 04:04 14.54096 121.07789 2626 ft 209 kts 61°
2026-05-07 04:05 14.54845 121.09141 2917 ft 225 kts 61°
2026-05-07 04:05 14.55658 121.10613 3206 ft 242 kts 63°
2026-05-07 04:05 14.56134 121.12318 3479 ft 258 kts 93°
2026-05-07 04:05 14.55498 121.14054 4006 ft 266 kts 128°
2026-05-07 04:06 14.54095 121.15314 4653 ft 268 kts 139°
2026-05-07 04:06 14.52654 121.16581 5290 ft 271 kts 136°
2026-05-07 04:06 14.51253 121.17891 5933 ft 274 kts 135°
2026-05-07 04:06 14.49838 121.19249 6578 ft 276 kts 135°
2026-05-07 04:07 14.48438 121.20608 7236 ft 278 kts 134°
2026-05-07 04:07 14.47028 121.21985 7913 ft 281 kts 134°
2026-05-07 04:07 14.45608 121.23379 8562 ft 284 kts 134°
2026-05-07 04:07 14.44182 121.24779 9199 ft 286 kts 134°
2026-05-07 04:08 14.42734 121.26203 9818 ft 289 kts 134°
2026-05-07 04:08 14.41252 121.27660 10379 ft 295 kts 134°
2026-05-07 04:08 14.39703 121.29185 10681 ft 312 kts 134°
2026-05-07 04:08 14.38100 121.30763 10993 ft 327 kts 134°
2026-05-07 04:09 14.36423 121.32413 11437 ft 335 kts 135°
2026-05-07 04:09 14.34733 121.34074 12027 ft 338 kts 135°
2026-05-07 04:09 14.33030 121.35745 12661 ft 341 kts 135°
2026-05-07 04:09 14.31307 121.37440 13235 ft 345 kts 135°
2026-05-07 04:10 14.29561 121.39155 13818 ft 348 kts 135°
2026-05-07 04:10 14.27790 121.40895 14414 ft 352 kts 135°
2026-05-07 04:10 14.26005 121.42650 14976 ft 355 kts 135°
2026-05-07 04:10 14.24204 121.44419 15557 ft 358 kts 135°
2026-05-07 04:11 14.22407 121.46184 16131 ft 361 kts 135°
2026-05-07 04:11 14.20575 121.47984 16672 ft 364 kts 135°
2026-05-07 04:11 14.18746 121.49779 17202 ft 367 kts 135°
2026-05-07 04:11 14.16894 121.51597 17762 ft 370 kts 135°
2026-05-07 04:12 14.15021 121.53435 18281 ft 373 kts 135°
2026-05-07 04:12 14.13119 121.55301 18807 ft 377 kts 135°
2026-05-07 04:12 14.11207 121.57177 19340 ft 380 kts 135°
2026-05-07 04:12 14.09296 121.59053 19834 ft 383 kts 135°
2026-05-07 04:13 14.07356 121.60957 20330 ft 386 kts 135°
2026-05-07 04:13 14.05396 121.62878 20813 ft 389 kts 135°
2026-05-07 04:13 14.03435 121.64803 21293 ft 392 kts 135°
2026-05-07 04:13 14.01453 121.66744 21738 ft 395 kts 135°
2026-05-07 04:14 13.99458 121.68699 22180 ft 398 kts 135°
2026-05-07 04:14 13.97434 121.70684 22635 ft 401 kts 135°
2026-05-07 04:14 13.95387 121.72692 23077 ft 404 kts 135°
2026-05-07 04:14 13.93350 121.74689 23515 ft 407 kts 135°
2026-05-07 04:15 13.91302 121.76694 23950 ft 410 kts 135°
2026-05-07 04:15 13.89211 121.78740 24383 ft 413 kts 135°
2026-05-07 04:15 13.87151 121.80808 24821 ft 416 kts 133°
2026-05-07 04:15 13.85188 121.83002 25248 ft 418 kts 130°
2026-05-07 04:16 13.83307 121.85284 25656 ft 420 kts 129°
2026-05-07 04:16 13.81403 121.87617 26058 ft 423 kts 129°
2026-05-07 04:16 13.79518 121.89932 26451 ft 426 kts 129°
2026-05-07 04:16 13.77601 121.92285 26840 ft 429 kts 129°
2026-05-07 04:17 13.75677 121.94644 27216 ft 432 kts 129°
2026-05-07 04:17 13.73747 121.97010 27595 ft 435 kts 129°
2026-05-07 04:17 13.71787 121.99411 27970 ft 438 kts 129°
2026-05-07 04:17 13.69809 122.01831 28335 ft 441 kts 129°
2026-05-07 04:18 13.67799 122.04289 28692 ft 444 kts 129°
2026-05-07 04:18 13.65818 122.06712 29019 ft 447 kts 129°
2026-05-07 04:18 13.63811 122.09168 29360 ft 449 kts 130°
2026-05-07 04:18 13.61779 122.11654 29716 ft 451 kts 130°
2026-05-07 04:19 13.59775 122.14104 30045 ft 453 kts 130°
2026-05-07 04:19 13.57721 122.16615 30363 ft 456 kts 130°
2026-05-07 04:19 13.55681 122.19107 30680 ft 458 kts 130°
2026-05-07 04:19 13.53622 122.21620 31011 ft 459 kts 130°
2026-05-07 04:20 13.51591 122.24101 31322 ft 461 kts 130°
2026-05-07 04:20 13.49506 122.26645 31622 ft 463 kts 131°
2026-05-07 04:20 13.47443 122.29161 31917 ft 465 kts 131°
2026-05-07 04:21 13.43242 122.34283 32502 ft 469 kts 131°
2026-05-07 04:21 13.41138 122.36848 32821 ft 471 kts 131°
2026-05-07 04:21 13.39015 122.39435 33150 ft 473 kts 131°
2026-05-07 04:21 13.36894 122.42017 33518 ft 473 kts 131°
2026-05-07 04:22 13.34776 122.44597 33988 ft 472 kts 131°
2026-05-07 04:22 13.32668 122.47166 34491 ft 471 kts 131°
2026-05-07 04:22 13.30550 122.49745 34970 ft 469 kts 131°
2026-05-07 04:22 13.28451 122.52300 35409 ft 468 kts 131°
2026-05-07 04:23 13.26365 122.54838 35831 ft 467 kts 131°
2026-05-07 04:23 13.24281 122.57373 36232 ft 466 kts 132°
2026-05-07 04:23 13.22189 122.59916 36616 ft 465 kts 131°
2026-05-07 04:23 13.20106 122.62449 36986 ft 465 kts 132°
2026-05-07 04:24 13.18013 122.64992 37321 ft 464 kts 132°
2026-05-07 04:24 13.15925 122.67529 37586 ft 465 kts 132°
2026-05-07 04:24 13.13820 122.70083 37823 ft 467 kts 132°
2026-05-07 04:24 13.11736 122.72612 38058 ft 468 kts 132°
2026-05-07 04:25 13.09629 122.75171 38288 ft 469 kts 132°
2026-05-07 04:25 13.07541 122.77703 38520 ft 470 kts 132°
2026-05-07 04:25 13.05418 122.80279 38750 ft 471 kts 132°
2026-05-07 04:25 13.03292 122.82855 38850 ft 473 kts 132°
2026-05-07 04:26 12.99037 122.88016 38852 ft 473 kts 132°
2026-05-07 04:26 12.94799 122.93150 38852 ft 473 kts 132°
2026-05-07 04:27 12.90564 122.98277 38851 ft 471 kts 132°
2026-05-07 04:27 12.86305 123.03430 38849 ft 470 kts 132°
2026-05-07 04:28 12.82090 123.08527 38838 ft 470 kts 132°
2026-05-07 04:28 12.77848 123.13657 38839 ft 470 kts 131°
2026-05-07 04:29 12.73613 123.18776 38837 ft 470 kts 132°
2026-05-07 04:29 12.69379 123.23888 38837 ft 470 kts 131°
2026-05-07 04:30 12.65164 123.28979 38838 ft 470 kts 132°
2026-05-07 04:30 12.60926 123.34093 38843 ft 470 kts 132°
2026-05-07 04:31 12.56688 123.39203 38841 ft 469 kts 131°
2026-05-07 04:31 12.52476 123.44284 38840 ft 468 kts 131°
2026-05-07 04:32 12.48259 123.49370 38844 ft 468 kts 131°
2026-05-07 04:32 12.44032 123.54461 38843 ft 469 kts 131°
2026-05-07 04:33 12.39554 123.59290 38841 ft 467 kts 138°
2026-05-07 04:33 12.34555 123.63587 38842 ft 466 kts 144°
2026-05-07 04:34 12.29155 123.67255 38841 ft 464 kts 151°
2026-05-07 04:34 12.23502 123.70421 38843 ft 464 kts 153°
2026-05-07 04:35 12.17807 123.73552 38838 ft 463 kts 153°
2026-05-07 04:35 12.12108 123.76690 38837 ft 463 kts 153°
2026-05-07 04:36 12.06445 123.79809 38834 ft 463 kts 153°
2026-05-07 04:36 12.00763 123.82941 38836 ft 463 kts 153°
2026-05-07 04:37 11.95089 123.86065 38832 ft 463 kts 153°
2026-05-07 04:37 11.89372 123.89211 38827 ft 463 kts 153°
2026-05-07 04:38 11.83694 123.92335 38817 ft 463 kts 153°
2026-05-07 04:38 11.78005 123.95464 38812 ft 462 kts 153°
2026-05-07 04:39 11.72481 123.98500 38811 ft 462 kts 153°
2026-05-07 04:39 11.66829 124.01605 38814 ft 462 kts 153°
2026-05-07 04:40 11.61167 124.04713 38812 ft 461 kts 152°
2026-05-07 04:40 11.55479 124.07838 38812 ft 461 kts 152°
2026-05-07 04:41 11.49812 124.10948 38814 ft 461 kts 152°
2026-05-07 04:41 11.44197 124.14028 38814 ft 460 kts 152°
2026-05-07 04:42 11.38496 124.17153 38815 ft 460 kts 152°
2026-05-07 04:42 11.32858 124.20244 38819 ft 460 kts 152°
2026-05-07 04:43 11.27214 124.23336 38819 ft 460 kts 152°
2026-05-07 04:43 11.21558 124.26436 38823 ft 459 kts 152°
2026-05-07 04:44 11.15894 124.29540 38825 ft 459 kts 152°
2026-05-07 04:44 11.10263 124.32624 38826 ft 459 kts 152°
2026-05-07 04:45 11.04608 124.35700 38830 ft 459 kts 152°
2026-05-07 04:45 10.98914 124.38757 38836 ft 460 kts 152°
2026-05-07 04:46 10.93263 124.41796 38836 ft 460 kts 152°
2026-05-07 04:46 10.87558 124.44872 38833 ft 459 kts 152°
2026-05-07 04:47 10.81908 124.47918 38822 ft 460 kts 152°
2026-05-07 04:47 10.76207 124.50987 38822 ft 459 kts 152°
2026-05-07 04:48 10.70585 124.54028 38821 ft 459 kts 152°
2026-05-07 04:48 10.64925 124.57098 38815 ft 460 kts 152°
2026-05-07 04:49 10.59254 124.60175 38814 ft 460 kts 152°
2026-05-07 04:49 10.53604 124.63240 38813 ft 460 kts 152°
2026-05-07 04:50 10.47969 124.66296 38809 ft 460 kts 152°
2026-05-07 04:50 10.42300 124.69370 38812 ft 460 kts 152°
2026-05-07 04:51 10.36655 124.72430 38814 ft 460 kts 152°
2026-05-07 04:51 10.30984 124.75503 38817 ft 460 kts 152°
2026-05-07 04:52 10.25317 124.78573 38816 ft 461 kts 152°
2026-05-07 04:52 10.19624 124.81654 38817 ft 461 kts 152°
2026-05-07 04:53 10.13959 124.84721 38812 ft 461 kts 152°
2026-05-07 04:53 10.08280 124.87793 38813 ft 461 kts 152°
2026-05-07 04:54 10.02617 124.90855 38813 ft 461 kts 152°
2026-05-07 04:54 9.96953 124.93919 38812 ft 461 kts 152°
2026-05-07 04:55 9.91282 124.96985 38809 ft 461 kts 152°
2026-05-07 04:55 9.85564 125.00076 38809 ft 462 kts 152°
2026-05-07 04:56 9.79849 125.03166 38808 ft 462 kts 152°
2026-05-07 04:56 9.74179 125.06222 38804 ft 462 kts 152°
2026-05-07 04:57 9.68465 125.09298 38795 ft 463 kts 152°
2026-05-07 04:57 9.62759 125.12373 38793 ft 464 kts 152°
2026-05-07 04:58 9.57055 125.15428 38792 ft 464 kts 152°
2026-05-07 04:58 9.51360 125.18454 38539 ft 461 kts 152°
2026-05-07 04:59 9.48469 125.19991 37603 ft 468 kts 152°
2026-05-07 04:59 9.45597 125.21516 36480 ft 476 kts 152°
2026-05-07 04:59 9.42632 125.23093 35784 ft 475 kts 152°
2026-05-07 04:59 9.39705 125.24651 35144 ft 474 kts 151°
2026-05-07 05:00 9.36794 125.26203 34499 ft 472 kts 151°
2026-05-07 05:00 9.33856 125.27769 33877 ft 471 kts 151°
2026-05-07 05:00 9.30935 125.29325 33261 ft 469 kts 151°
2026-05-07 05:00 9.28047 125.30863 32715 ft 467 kts 150°
2026-05-07 05:01 9.25155 125.32403 32304 ft 462 kts 150°
2026-05-07 05:01 9.22344 125.33902 31848 ft 459 kts 150°
2026-05-07 05:01 9.19512 125.35412 31436 ft 455 kts 150°
2026-05-07 05:01 9.16725 125.36897 31047 ft 451 kts 150°
2026-05-07 05:02 9.13953 125.38374 30668 ft 446 kts 150°
2026-05-07 05:02 9.11240 125.39819 30301 ft 442 kts 150°
2026-05-07 05:02 9.08524 125.41266 29934 ft 438 kts 150°
2026-05-07 05:02 9.05829 125.42703 29563 ft 434 kts 150°
2026-05-07 05:03 9.03167 125.44119 29189 ft 430 kts 150°
2026-05-07 05:03 9.00535 125.45519 28829 ft 426 kts 150°
2026-05-07 05:03 8.97864 125.46888 28476 ft 423 kts 154°
2026-05-07 05:03 8.95112 125.47933 28111 ft 422 kts 161°
2026-05-07 05:04 8.92275 125.48619 27755 ft 421 kts 168°
2026-05-07 05:04 8.89352 125.49000 27408 ft 418 kts 172°
2026-05-07 05:04 8.86480 125.49287 27040 ft 416 kts 172°
2026-05-07 05:04 8.83573 125.49567 26681 ft 413 kts 172°
2026-05-07 05:05 8.80731 125.49843 26338 ft 410 kts 172°
2026-05-07 05:05 8.77884 125.50124 25978 ft 407 kts 172°
2026-05-07 05:05 8.75103 125.50404 25621 ft 404 kts 172°
2026-05-07 05:05 8.72275 125.50689 25265 ft 402 kts 172°
2026-05-07 05:06 8.69477 125.50972 24907 ft 399 kts 172°
2026-05-07 05:06 8.66733 125.51251 24559 ft 397 kts 171°
2026-05-07 05:06 8.63976 125.51532 24210 ft 395 kts 171°
2026-05-07 05:06 8.61241 125.51812 23864 ft 392 kts 171°
2026-05-07 05:07 8.58511 125.52090 23511 ft 390 kts 171°
2026-05-07 05:07 8.55807 125.52367 23155 ft 388 kts 171°
2026-05-07 05:07 8.53130 125.52638 22797 ft 386 kts 171°
2026-05-07 05:07 8.50451 125.52893 22443 ft 385 kts 172°
2026-05-07 05:08 8.47813 125.53127 22108 ft 382 kts 172°
2026-05-07 05:08 8.45143 125.53362 21780 ft 380 kts 172°
2026-05-07 05:08 8.42528 125.53593 21460 ft 378 kts 172°
2026-05-07 05:08 8.39890 125.53828 21123 ft 376 kts 172°
2026-05-07 05:09 8.37280 125.54062 20793 ft 374 kts 172°
2026-05-07 05:09 8.34698 125.54293 20454 ft 373 kts 172°
2026-05-07 05:09 8.32104 125.54526 20115 ft 371 kts 172°
2026-05-07 05:09 8.29528 125.54757 19785 ft 369 kts 172°
2026-05-07 05:10 8.26991 125.54984 19462 ft 368 kts 172°
2026-05-07 05:10 8.24424 125.55215 19119 ft 366 kts 172°
2026-05-07 05:10 8.21877 125.55444 18774 ft 365 kts 172°
2026-05-07 05:10 8.19346 125.55670 18418 ft 364 kts 172°
2026-05-07 05:11 8.16839 125.55896 18069 ft 362 kts 172°
2026-05-07 05:11 8.14317 125.56123 17714 ft 361 kts 172°
2026-05-07 05:11 8.11805 125.56349 17364 ft 360 kts 172°
2026-05-07 05:11 8.09318 125.56573 17014 ft 359 kts 172°
2026-05-07 05:12 8.06840 125.56796 16659 ft 357 kts 172°
2026-05-07 05:12 8.04362 125.57018 16317 ft 356 kts 172°
2026-05-07 05:12 8.01885 125.57240 15965 ft 354 kts 172°
2026-05-07 05:12 7.99426 125.57457 15629 ft 353 kts 174°
2026-05-07 05:13 7.96956 125.57436 15267 ft 355 kts 182°
2026-05-07 05:13 7.94509 125.57028 14917 ft 356 kts 192°
2026-05-07 05:13 7.92124 125.56366 14572 ft 355 kts 194°
2026-05-07 05:13 7.89746 125.55653 14225 ft 354 kts 194°
2026-05-07 05:14 7.87389 125.54943 13886 ft 352 kts 194°
2026-05-07 05:14 7.85040 125.54241 13547 ft 351 kts 194°